EHI
0 0 0 0 0 0 0 0 0 0 0 1 1 1 2 3 4 6 8 11 13 14 16 21 24 23 19 18 19 22 25 26 24 22 21 22 23 24 24 23 21 21 20 19
0 0 0 0 0 0 0 0 0 0 1 2 2 2 2 4 5 7 8 10 12 14 15 18 22 24 24 24 24 25 26 25 24 22 23 24 24 25 27 25 23 22 23 22
0 0 0 0 0 0 0 0 0 1 2 2 3 4 6 7 7 7 7 9 12 14 14 16 19 24 29 31 32 30 27 24 22 21 23 25 26 28 31 29 26 26 26 26
0 0 0 0 0 0 0 0 1 2 2 3 4 7 10 10 9 8 9 12 15 15 15 17 20 24 29 34 35 33 29 25 22 21 22 27 30 33 34 32 30 30 28 27
0 0 0 0 0 0 0 1 2 3 4 6 7 7 9 11 11 13 15 18 19 18 17 18 23 27 30 33 35 34 31 29 27 25 24 28 32 34 35 33 31 29 26 24
0 0 0 0 0 0 1 2 3 5 7 9 9 8 10 11 14 18 21 22 22 19 17 19 24 28 31 33 33 31 30 31 31 29 27 27 29 31 32 31 29 25 21 19
0 0 0 0 0 0 1 3 6 9 11 12 13 13 14 15 17 21 23 22 22 20 19 20 22 26 29 31 30 27 26 28 30 30 27 25 27 29 31 29 26 21 17 15
0 0 0 0 0 0 2 6 11 13 14 16 18 18 18 18 18 19 20 20 21 23 23 22 22 23 27 29 28 25 24 26 27 27 24 24 27 30 31 28 23 18 15 13
0 0 0 0 0 0 3 8 12 15 16 17 18 19 18 18 18 17 17 18 20 23 25 25 24 24 25 27 27 26 25 25 26 24 22 23 27 30 29 26 20 16 13 12
0 0 1 1 1 2 4 8 11 14 16 16 16 17 16 16 17 17 17 16 16 17 22 24 25 24 24 26 28 29 27 26 26 24 22 24 27 28 27 23 19 15 14 14
0 0 2 4 6 6 7 9 12 15 16 16 14 13 13 14 17 19 17 14 12 12 17 23 24 23 23 26 28 28 27 27 27 25 23 26 27 25 21 17 14 13 14 14
2 2 4 7 10 11 10 12 14 17 17 15 12 11 12 14 16 17 16 13 11 12 16 22 24 23 23 25 27 26 26 27 27 26 25 26 26 21 15 11 8 7 8 9
6 6 7 10 11 12 11 12 14 15 14 12 11 10 12 13 14 14 14 13 13 14 17 19 22 23 24 25 26 26 26 28 29 28 26 26 25 22 18 13 8 4 2 2
9 10 11 12 12 11 10 11 12 11 9 8 8 9 11 12 13 12 12 13 14 16 16 16 19 21 23 26 28 28 29 30 30 28 25 25 25 24 22 19 15 9 3 0
10 11 12 12 12 11 10 10 11 8 6 5 6 8 10 12 13 13 12 13 14 15 15 14 16 18 22 26 29 30 31 31 29 25 23 24 25 24 21 20 18 14 7 3
9 10 10 11 12 11 9 8 9 6 4 4 6 7 10 11 13 14 13 12 12 14 14 14 16 19 21 25 29 31 32 29 25 24 24 25 26 24 20 19 18 15 11 8
6 7 8 9 9 8 6 5 5 4 3 4 5 6 8 11 12 12 12 11 10 12 14 15 17 20 22 25 29 31 30 26 24 24 25 27 26 23 19 18 17 15 13 10
3 4 5 5 5 6 5 3 2 3 3 4 5 6 7 9 9 8 9 10 9 11 14 16 16 18 20 22 25 27 26 24 24 23 23 23 22 19 17 17 15 13 11 10
1 2 2 3 3 4 4 3 1 2 3 3 4 5 6 6 5 5 7 8 9 11 14 15 13 14 15 15 17 20 22 21 20 20 18 17 16 15 14 13 12 10 9 10
1 2 2 2 1 1 2 2 1 1 2 3 4 4 5 5 5 4 5 6 7 10 13 12 11 11 11 9 11 16 18 17 15 15 14 12 11 11 10 9 9 8 8 8
2 2 1 1 0 0 0 1 1 1 2 4 5 5 5 6 6 5 4 4 5 9 11 10 10 10 8 7 8 11 14 14 12 11 10 9 9 9 8 8 8 7 7 6
1 1 0 0 0 0 1 2 2 2 3 4 5 5 6 6 6 5 4 3 3 5 8 9 9 8 6 5 5 7 11 14 13 11 8 7 8 7 7 7 7 7 6 6
0 0 0 0 0 0 1 2 3 3 4 5 5 5 5 5 5 4 3 2 1 3 6 7 6 5 4 4 5 7 11 13 14 11 9 8 7 6 5 5 6 6 6 6
1 0 0 0 0 0 1 1 1 2 3 3 4 3 2 2 3 2 1 1 1 3 5 5 3 2 4 6 7 9 11 12 12 10 8 6 5 4 4 5 6 7 7 6
2 1 0 0 0 0 0 0 0 1 1 1 1 1 0 0 1 2 2 3 3 3 4 4 2 2 4 7 8 8 9 10 9 8 6 4 3 4 6 7 8 8 7 7
3 2 1 0 0 0 0 0 0 0 0 1 1 1 1 1 3 4 5 5 5 4 4 4 3 3 5 8 9 9 8 6 5 6 5 5 5 6 8 9 9 9 8 7
3 3 2 1 0 0 0 0 0 0 1 2 2 2 2 3 4 6 6 6 6 5 5 4 4 5 7 9 11 10 8 4 3 4 6 7 7 8 9 10 9 8 7 7
Wind_Speed
7 4 5 8 8 10 12 11 11 8 7 4 3 2 2 3 3 4 4 5 6 6 6 6 7 7 7 7 6 6 6 6 6 5 5 5 5 5 5 5 5 4 3 3
8 7 8 9 9 10 10 10 11 9 6 1 1 1 1 1 3 4 4 4 5 6 6 6 6 7 7 6 6 7 7 6 6 5 5 5 5 5 5 4 4 4 4 3
9 7 9 11 9 9 8 7 8 8 3 1 2 1 1 0 1 1 2 3 3 4 5 5 6 6 6 6 6 6 6 6 6 6 5 5 5 5 5 4 4 4 4 3
7 7 12 3 0 4 5 3 3 3 2 2 2 1 2 2 1 1 1 1 2 3 3 4 5 5 5 5 6 6 6 5 5 6 6 5 5 5 5 4 4 3 3 3
8 10 9 4 2 3 6 4 1 2 2 1 1 3 4 3 3 3 2 1 1 2 2 3 4 5 5 5 5 5 5 5 5 5 5 5 5 5 4 4 3 3 3 3
8 10 9 3 2 2 6 5 1 2 2 2 2 4 2 4 4 3 3 2 0 0 1 3 3 5 6 5 5 5 4 4 4 5 5 5 5 5 4 4 4 3 3 3
10 10 5 1 1 4 7 1 2 2 2 2 2 3 3 3 3 2 2 2 1 1 2 2 3 5 5 5 4 4 4 4 4 5 5 5 4 4 4 4 4 4 3 3
8 10 5 3 1 2 3 3 2 2 2 2 2 2 2 3 3 3 2 2 1 1 1 2 3 4 4 4 4 4 4 4 4 4 4 4 4 4 4 4 4 4 4 4
4 2 3 2 2 3 2 1 2 2 2 2 1 1 2 3 4 4 3 3 2 1 1 1 3 4 5 4 4 4 4 5 4 4 4 4 4 5 4 4 4 4 4 4
4 3 1 0 1 1 2 2 2 2 2 2 2 2 3 3 3 4 4 3 2 1 0 0 1 3 4 3 4 5 5 5 5 5 5 4 4 4 4 4 4 4 4 4
6 4 3 3 2 2 2 2 2 2 2 2 2 2 3 3 4 4 4 4 3 2 2 2 2 3 3 3 4 4 4 4 5 5 4 4 4 3 5 4 3 4 4 4
5 3 4 3 2 3 3 3 2 2 3 3 3 3 3 3 3 4 4 4 4 4 3 3 3 3 3 3 4 4 5 4 4 3 3 4 3 3 1 2 2 3 3 4
6 6 5 5 5 5 5 4 3 3 3 3 3 3 3 3 3 4 4 4 5 4 4 4 3 3 2 3 4 4 4 4 3 3 3 4 4 4 3 2 2 3 3 4
6 6 6 6 5 5 5 5 4 4 4 3 3 3 3 3 3 4 4 5 5 4 4 4 3 3 2 3 4 5 5 4 4 4 4 4 4 4 4 4 3 3 3 4
7 7 7 6 6 6 5 5 5 5 4 4 3 3 4 4 5 5 5 5 5 5 4 4 4 4 3 3 4 5 5 4 4 4 4 4 4 4 4 4 4 3 2 3
7 7 7 7 7 7 7 6 6 6 5 5 4 4 4 4 4 5 5 5 5 5 5 5 4 4 3 4 4 5 4 4 5 4 4 4 4 4 4 4 4 3 4 3
8 8 7 7 7 7 7 7 6 6 6 6 5 5 5 5 5 5 6 5 5 5 5 5 5 4 4 4 4 4 3 4 5 5 4 4 4 4 4 4 3 3 3 2
8 9 8 8 7 6 7 7 6 6 6 6 5 5 6 6 6 6 6 6 6 5 5 4 4 5 4 4 4 4 3 3 4 4 3 3 3 3 4 3 3 3 2 2
6 7 7 7 7 6 6 6 6 6 6 6 6 6 6 6 6 6 5 5 6 6 4 3 3 4 4 3 4 4 4 3 3 3 3 3 3 3 3 2 3 3 3 2
4 4 5 6 6 7 6 6 6 5 5 6 6 6 6 6 6 5 5 5 5 3 3 3 3 3 3 3 4 3 3 3 3 3 2 3 3 3 3 3 3 3 3 3
3 3 4 4 5 5 5 5 5 6 5 5 5 5 5 5 5 5 5 5 3 2 2 2 3 2 2 2 4 3 2 2 2 3 3 3 3 3 3 3 3 3 3 3
2 2 3 3 4 4 4 5 5 5 5 4 4 4 4 4 4 4 4 3 2 2 2 2 1 1 2 4 3 2 2 2 2 2 2 2 2 2 2 2 3 3 3 3
3 3 3 3 3 4 4 4 4 4 4 4 4 4 4 4 3 3 3 1 2 2 3 1 1 1 3 4 2 2 2 2 2 2 2 2 2 2 2 3 2 3 3 3
3 3 3 3 3 3 3 3 3 3 3 3 3 3 3 3 2 2 2 1 1 2 1 1 1 2 4 3 1 1 1 1 1 1 1 1 1 2 2 2 2 2 2 2
3 3 3 3 3 2 2 3 2 2 2 2 2 3 3 2 2 1 1 0 1 1 0 2 1 2 2 1 0 1 1 1 1 1 2 2 1 2 2 2 2 2 2 2
3 3 3 3 2 2 2 1 1 1 1 1 2 1 1 1 1 1 1 1 1 1 0 1 1 1 0 1 1 2 2 3 3 2 2 2 2 2 2 2 2 2 2 2
3 3 2 2 1 1 1 1 1 1 1 1 1 1 1 1 1 1 1 1 1 1 1 1 1 1 1 2 2 2 2 2 2 2 2 2 2 2 2 3 2 2 2 2
Wind_Direction
258 264 244 231 226 224 234 251 263 258 249 226 204 219 212 211 206 193 181 180 177 177 178 179 181 184 187 188 186 187 188 194 194 195 194 197 198 198 197 203 204 201 206 214
232 231 235 239 235 233 237 247 254 257 255 311 213 221 227 212 204 197 193 190 184 180 181 183 184 184 184 185 185 186 190 192 189 192 192 193 196 192 192 197 202 202 208 214
230 217 236 233 227 228 230 240 254 252 266 347 223 243 263 210 183 203 207 199 197 199 193 188 188 186 184 180 181 186 191 190 189 193 196 197 197 189 191 194 195 202 211 214
239 227 237 228 232 234 225 225 271 301 331 288 251 202 98 72 36 327 278 230 215 213 199 192 184 180 182 174 175 183 189 191 190 192 193 192 193 190 192 196 198 204 209 213
235 231 229 201 184 237 237 212 306 294 319 334 256 187 139 61 15 358 341 289 256 228 197 183 176 170 169 173 174 179 188 195 196 196 194 192 193 193 192 194 199 207 210 213
228 239 238 181 113 293 249 210 57 341 344 335 263 230 93 25 3 2 0 353 328 147 149 160 167 167 171 175 174 182 187 193 194 197 201 201 194 192 190 194 204 212 209 216
233 238 234 57 359 238 235 157 50 358 353 323 330 346 19 354 360 9 6 10 24 99 130 150 159 164 173 175 185 191 187 188 191 196 201 197 189 190 193 198 202 213 212 218
229 236 220 66 193 257 19 33 28 14 356 349 18 43 24 14 10 9 7 10 17 79 111 148 164 170 180 189 192 190 186 186 189 192 202 189 184 191 199 201 202 207 212 225
246 266 52 53 38 34 356 352 359 1 358 2 14 20 12 3 359 359 358 360 356 44 97 145 175 187 193 196 190 185 186 185 186 189 196 197 193 193 200 205 216 216 218 227
235 203 202 250 335 331 312 309 325 331 336 342 347 352 349 345 349 351 351 348 346 351 11 89 205 214 214 203 188 187 190 191 189 191 196 197 202 202 210 219 223 225 228 231
240 240 239 230 260 299 303 299 318 339 343 336 332 331 335 336 342 340 341 340 336 325 315 308 270 235 228 214 196 198 200 203 204 199 194 200 209 216 219 220 229 236 241 242
255 245 256 247 266 281 279 279 294 311 320 319 315 316 321 326 332 334 333 331 323 314 310 310 299 260 238 215 205 209 211 211 214 213 201 210 209 211 127 206 163 203 236 255
276 283 284 276 273 272 274 281 287 290 296 301 309 309 311 318 324 328 326 324 322 316 310 308 303 295 264 231 215 216 222 221 225 224 217 218 217 218 214 193 168 186 211 226
266 266 262 256 258 259 262 270 279 286 286 283 285 290 292 295 302 311 317 318 318 316 311 306 305 308 301 253 223 221 226 217 220 221 220 222 221 224 221 219 211 213 201 196
262 263 257 257 257 254 254 258 264 266 266 267 269 273 278 286 292 296 301 303 306 305 305 304 304 307 306 278 247 236 236 231 222 223 222 219 221 225 224 224 225 222 225 192
264 255 247 247 250 253 254 255 260 261 257 255 257 264 271 275 279 287 292 297 295 300 304 302 299 299 298 285 263 244 232 219 221 227 226 221 222 223 222 223 225 226 228 223
252 250 248 249 251 252 253 256 260 262 258 257 260 264 268 269 270 274 282 290 288 289 290 288 292 295 290 284 272 258 239 215 215 225 224 222 226 229 228 224 224 229 231 213
254 255 256 254 253 255 256 257 259 259 256 254 256 257 260 261 266 274 283 291 287 282 286 286 289 293 291 287 279 268 249 231 229 231 226 224 227 226 226 222 212 216 214 181
248 249 251 252 254 253 253 255 259 262 260 255 252 253 258 261 265 269 275 281 281 278 288 292 285 277 281 289 282 256 245 238 235 227 219 200 214 226 228 221 215 211 203 198
249 249 249 253 254 252 252 253 255 257 256 251 249 247 252 258 263 268 271 270 272 289 297 295 278 280 279 277 280 266 252 237 226 217 210 204 204 207 206 203 211 212 207 199
259 252 255 259 258 257 254 255 255 253 251 249 244 240 245 253 259 261 261 263 268 281 274 254 258 274 282 297 266 255 236 225 213 209 212 210 208 202 202 201 200 204 205 198
283 277 272 273 268 259 255 255 253 249 241 239 238 234 237 245 249 252 257 270 287 303 269 261 278 0 319 282 251 242 227 220 219 220 221 217 210 195 192 196 196 197 201 206
297 294 291 289 281 272 266 262 255 250 242 234 233 232 238 254 259 258 261 271 284 293 276 293 14 334 289 263 249 228 208 199 204 208 204 201 189 183 188 196 198 199 202 201
300 297 292 289 286 275 266 265 256 251 246 235 229 226 232 235 243 269 290 353 358 296 277 83 112 272 264 256 247 218 196 182 172 166 174 172 171 169 169 174 177 189 192 190
292 288 284 280 272 263 251 248 238 229 228 227 223 215 230 240 242 242 249 120 102 230 156 103 152 236 243 263 176 151 142 123 119 131 139 134 145 151 159 166 168 175 178 176
293 290 297 297 290 275 252 243 248 238 227 215 208 208 220 222 199 165 163 155 145 137 108 97 122 189 244 70 99 103 112 124 129 134 120 120 127 124 125 127 130 129 126 123
282 277 279 283 268 258 257 244 244 261 257 213 168 146 152 149 136 135 145 148 147 140 106 85 67 62 73 74 81 92 100 99 104 110 114 115 114 114 116 119 118 113 113 114